Chillicothe, MO

5:33 PM CST on December 17, 2017 (GMT -0600)
Chillicothe

Weather History for KCDJ - January, 2014

Change the Weather History Date:

Saturday, January 4, 2014

  Actual Average (KIRK) Record (KIRK)
Temperature  
Mean Temperature 27 °F -  
Max Temperature 37 °F 31 °F 65 °F (1939)
Min Temperature 16 °F 15 °F -16 °F (1919)
Degree Days  
Heating Degree Days 38    
Moisture  
Dew Point 17 °F    
Average Humidity 69    
Maximum Humidity 84    
Minimum Humidity 57    
Precipitation  
Precipitation 0.15 in - - ()
Sea Level Pressure  
Sea Level Pressure 29.97 in    
Wind  
Wind Speed 8 mph (West)    
Max Wind Speed 16 mph    
Max Gust Speed 25 mph    
Averages and records for this station are not official NWS values.
T = Trace of Precipitation, MM = Missing Value Source: NWS Daily Summary

Daily Weather History Graph

Daily Weather History Graph

Search for Another Location

Airport or City:

Trip Planner

Search our weather history database for the weather conditions in past years. The results will help you decide how hot, cold, wet, or windy it might be!

Date:

Astronomy

Jan. 04, 2014 Rise Set
Actual Time 7:35 AM CST 5:03 PM CST
Civil Twilight 7:05 AM CST 5:33 PM CST
Nautical Twilight 6:31 AM CST 6:07 PM CST
Astronomical Twilight 5:59 AM CST 6:39 PM CST
Moon 9:42 AM CST (1/4) 9:23 PM CST (1/4)
Length of Visible Light 10h 27m
Length of Day
9h 27m
Waxing Crescent, 15% of the Moon is Illuminated
Jan 4
Waxing Crescent
Jan 7
First Quarter
Jan 15
Full
Jan 23
Last Quarter
Jan 30
New

Hourly Weather History & Observations

Time (CST) Temp. Windchill Dew Point Humidity Pressure Visibility Wind Dir Wind Speed Gust Speed Precip Events Conditions
12:52 AM 32.0 °F 23.0 °F 19.0 °F 59% 29.82 in - South 11.5 mph 20.7 mph N/A   Unknown
1:52 AM 30.9 °F 22.2 °F 18.0 °F 59% 29.82 in - South 10.4 mph - N/A   Unknown
2:52 AM 30.9 °F 22.8 °F 18.0 °F 59% 29.84 in - South 9.2 mph - N/A   Unknown
3:52 AM 30.0 °F 22.4 °F 18.0 °F 61% 29.85 in - South 8.1 mph - N/A   Unknown
4:52 AM 28.0 °F 22.8 °F 17.1 °F 63% 29.87 in - South 4.6 mph - N/A   Unknown
5:52 AM 25.0 °F 18.1 °F 17.1 °F 72% 29.87 in - South 5.8 mph - N/A   Unknown
6:52 AM 28.9 °F 23.9 °F 18.0 °F 64% 29.88 in - South 4.6 mph - N/A   Unknown
7:52 AM 25.0 °F 20.7 °F 18.0 °F 75% 29.89 in - South 3.5 mph - N/A   Unknown
8:52 AM 28.0 °F 24.2 °F 19.0 °F 69% 29.92 in - South 3.5 mph - N/A   Unknown
9:52 AM 32.0 °F 27.5 °F 21.0 °F 64% 29.91 in - South 4.6 mph - N/A   Unknown
10:52 AM 35.1 °F 29.3 °F 21.9 °F 59% 29.91 in - South 6.9 mph - N/A   Unknown
11:52 AM 37.0 °F - 23.0 °F 57% 29.88 in - Calm Calm - N/A   Unknown
12:52 PM 37.9 °F 33.5 °F 24.1 °F 57% 29.91 in - WNW 5.8 mph - N/A   Unknown
1:52 PM 30.9 °F 19.8 °F 21.9 °F 69% 29.95 in - North 16.1 mph 25.3 mph N/A   Unknown
2:52 PM 28.0 °F 17.5 °F 18.0 °F 66% 29.95 in - North 12.7 mph 21.9 mph N/A   Unknown
3:52 PM 26.1 °F 15.6 °F 17.1 °F 69% 30.01 in - North 11.5 mph 18.4 mph N/A   Unknown
4:52 PM 23.0 °F 12.4 °F 14.0 °F 68% 30.05 in - NNW 10.4 mph 23.0 mph N/A   Unknown
5:52 PM 21.9 °F 11.7 °F 15.1 °F 75% 30.08 in - North 9.2 mph - N/A   Unknown
6:52 PM 19.9 °F 9.3 °F 15.1 °F 81% 30.11 in - North 9.2 mph 17.3 mph 0.02 in   Unknown
7:52 PM 18.0 °F 6.9 °F 12.9 °F 81% 30.12 in - North 9.2 mph 18.4 mph 0.02 in   Unknown
8:52 PM 17.1 °F 5.8 °F 12.9 °F 84% 30.14 in - North 9.2 mph - 0.02 in   Unknown
9:52 PM 17.1 °F 5.8 °F 12.0 °F 81% 30.15 in - North 9.2 mph - 0.02 in   Unknown
10:52 PM 17.1 °F 6.6 °F 12.0 °F 81% 30.16 in - North 8.1 mph - 0.03 in   Unknown
11:52 PM 16.0 °F 5.3 °F 10.9 °F 81% 30.16 in - North 8.1 mph - 0.04 in   Unknown